Flag for U.S.A. Weather past 2 weeks in Dickinson, North Dakota, U.S.A.

Now
36 °F

Overcast.


Feels Like: 25 °F
Forecast: 24 / 44 °F
Wind: 21 mph from Southeast

Location: Dickinson Municipal Airport


UV Index: 0 (Low)

Visibility: 10 mi


Pressure: 30.18 "Hg

Humidity: 64%

Dew point: 25 °F

Location of DickinsonLocation

Historic Weather in Dickinson

°F

Dickinson temperature yesterday

Maximum temperature yesterday: 29 °F (at 1:56 PM)
Minimum temperature yesterday: 22 °F (at 5:56 AM)
Average temperature yesterday: 27 °F

Past Weeks' High & Low Weather Summary

 TemperatureHumidityPressure
High70 °F (Apr 9, 11:56 AM)96% (Apr 4, 7:56 AM)30.33 "Hg (Apr 4, 7:56 AM)
Low9 °F (Apr 4, 6:56 AM)20% (Apr 11, 1:56 PM)29.54 "Hg (Apr 9, 12:56 PM)
Average36 °F64%29.95 "Hg
* Reported Apr 2 12:59 PM — Apr 17 12:56 PM, Dickinson, Weather by CustomWeather, © 2014

Note: Actual official high and low records may vary slightly from our data, if they occured in-between our weather recording intervals... More about our weather records

Advertising

Historic Weather Conditions — Data for Previous 24 hours

 ConditionsComfort  
Time TempWeatherWind HumidityBarometerVisibility
12:56 PM
Apr 17
36 °FOvercast.22 mph64%30.19 "Hg10 mi
11:56 AM38 °FMostly cloudy.18 mph60%30.20 "Hg10 mi
10:56 AM36 °FMostly cloudy.18 mph62%30.22 "Hg10 mi
9:56 AM35 °FBroken clouds.21 mph59%30.23 "Hg10 mi
8:56 AM32 °FPassing clouds.22 mph64%30.24 "Hg10 mi
7:56 AM29 °FMostly cloudy.16 mph69%30.27 "Hg10 mi
6:56 AM27 °FOvercast.18 mph69%30.27 "Hg10 mi
5:56 AM27 °FOvercast.15 mph66%30.27 "Hg10 mi
4:56 AM28 °FOvercast.13 mph64%30.27 "Hg10 mi
3:56 AM27 °FOvercast.10 mph72%30.27 "Hg10 mi
2:56 AM26 °FOvercast.7 mph81%30.27 "Hg10 mi
1:56 AM26 °FOvercast.7 mph81%30.28 "Hg10 mi
12:56 AM27 °FOvercast.7 mph78%30.29 "Hg10 mi
11:56 PM
Apr 16
27 °FOvercast.6 mph75%30.29 "Hg10 mi
10:56 PM27 °FOvercast.5 mph75%30.29 "Hg10 mi
9:56 PM27 °FOvercast.8 mph75%30.29 "Hg10 mi
8:56 PM27 °FOvercast.9 mph75%30.29 "Hg10 mi
7:56 PM27 °FOvercast.9 mph72%30.27 "Hg10 mi
6:56 PM28 °FOvercast.13 mph69%30.26 "Hg10 mi
5:56 PM29 °FOvercast.13 mph69%30.24 "Hg10 mi
4:56 PM29 °FOvercast.13 mph72%30.23 "Hg10 mi
3:56 PM29 °FOvercast.9 mph72%30.21 "Hg9 mi
2:56 PM29 °FOvercast.10 mph72%30.19 "Hg10 mi
Weather by CustomWeather, © 2014

See weather overview